Location: Boursonne
(49.2024°N, 3.0468°E)
Time: 09:00:53
(UTC+00:00)

FALCON 9 DEB - Pass Details

Date: 03 March 2021
Orbit: 424 x 435 km, 53.0° (Epoch: 10 April)

Event Time Altitude Azimuth Distance (km) Brightness Sun altitude
Rises 18:19:38 0° 293° (WNW) 2,406 8.3 -8.2°
Reaches altitude 10° 18:21:45 10° 295° (WNW) 1,534 7.1 -8.5°
Maximum altitude 18:25:11 77° 20° (NNE) 446 3.1 -9.1°
Enters shadow 18:28:12 13° 108° (ESE) 1,353 5.0 -9.6°
